User: anonymous   Login
Location: Albany
(35.0000°S, 118.0000°E)
Time: 10:26:29
(UTC-04:00)
Language:

ERS-1 Rocket - Orbit

View from above orbital plane
View from above orbital plane
View from above satellite
View from above satellite

Ground track
Ground track

The orbit data is extracted from the following two-line orbital elements,

1 21610U 91050F   14295.11427939  .00000698  00000-0  23462-3 0  6329
2 21610 098.7321 322.4993 0002207 327.5675 099.9055 14.40373403220583
Epoch (UTC): 22 October 2014 02:44:33
Eccentricity: 0.0002207
inclination: 98.7321°
perigee height: 755 km
apogee height: 759 km
right ascension of ascending node: 322.4993°
argument of perigee: 327.5675°
revolutions per day: 14.40373403
mean anomaly at epoch: 99.9055°
orbit number at epoch: 22058

The dashed part of the orbit path shows where the satellite is in the earth's shadow,  

DLR